Wind_Speed
7 5 3 3 4 5 6 7 8 10 11 12 14 15 15 17 18 19 19 20 21 23 23 25 28 31 33 37 40 41 44 45 46 46 46 48 48 51 50 55 50 51 46 50 46 45 48
5 6 6 6 5 5 6 6 7 8 9 10 11 12 13 14 15 15 16 16 17 19 20 22 25 28 30 34 36 40 42 43 45 49 50 51 52 53 54 53 59 52 53 50 50 49 48
3 3 3 4 5 5 5 5 5 5 6 6 7 7 8 9 9 11 13 16 18 20 22 24 25 26 28 28 30 32 36 40 45 49 49 53 58 58 56 55 56 59 61 57 54 52 51
3 4 4 4 5 6 6 5 4 3 2 3 4 5 6 8 10 11 12 14 14 16 18 19 21 22 23 26 27 30 30 34 39 43 49 53 57 61 64 62 60 62 63 58 61 53 50
3 4 5 6 6 5 4 3 2 2 2 4 5 7 9 11 13 14 16 16 16 15 13 14 16 17 19 21 24 26 28 32 36 41 47 51 55 61 65 68 69 64 64 62 55 58 59
4 4 4 4 4 3 3 3 2 3 3 4 6 8 10 12 14 16 17 17 18 16 16 15 14 15 18 20 24 27 30 32 35 39 43 49 57 60 64 69 73 71 69 66 63 59 66
6 6 6 5 4 4 4 3 3 4 5 6 8 9 11 12 13 15 15 18 19 21 21 20 22 25 27 28 29 30 33 37 41 44 45 50 58 61 64 69 71 73 76 74 68 65 68
7 7 6 6 6 6 5 4 4 6 7 8 8 9 11 12 14 15 17 18 19 20 22 24 27 29 28 29 30 33 35 38 42 46 51 55 58 59 63 68 74 75 78 80 76 70 69
9 9 8 8 7 6 5 4 5 6 7 7 8 9 10 12 14 15 17 18 19 20 20 21 21 24 27 30 33 35 39 39 41 48 51 54 55 57 62 69 72 76 78 78 81 74 70
12 10 9 9 9 7 6 5 6 6 6 5 5 6 7 9 11 13 15 17 18 20 20 19 21 23 26 29 31 34 38 38 45 51 53 49 46 48 55 62 64 75 72 74 78 75 78
13 11 10 10 9 8 7 6 6 7 6 6 6 7 7 9 11 13 15 17 18 19 20 22 21 21 24 27 29 33 37 39 41 48 49 37 39 36 45 58 57 64 67 65 71 67 76
17 14 13 12 11 11 10 9 9 9 8 7 8 9 9 10 12 14 15 17 18 18 20 18 19 20 23 26 29 33 37 41 43 46 45 38 27 33 31 41 54 53 53 57 56 51 65
21 19 17 17 16 15 15 15 14 13 12 11 9 10 10 11 13 15 17 18 21 22 21 20 19 20 23 24 27 31 36 39 44 46 39 26 24 24 15 23 38 36 40 48 44 38 52
26 25 23 21 20 19 17 17 16 16 16 15 13 13 13 13 14 15 17 18 20 21 22 22 19 22 23 24 26 29 35 38 43 46 41 33 15 15 14 22 30 34 33 37 42 41 49
31 29 26 24 22 20 18 17 17 18 18 17 15 15 15 14 15 16 17 17 20 22 22 21 22 21 22 23 26 28 34 36 40 43 40 33 20 16 19 23 17 23 39 33 41 41 44
36 33 30 27 25 24 22 21 20 18 18 18 16 15 14 14 14 16 17 18 20 22 24 23 24 23 23 23 24 27 32 35 38 37 34 27 27 17 15 23 25 14 11 32 44 42 46
40 38 34 31 29 27 25 24 24 21 18 17 17 16 14 13 13 16 17 20 21 22 24 25 26 26 27 25 25 27 30 34 37 37 34 28 26 13 14 21 27 25 25 20 24 27 40
45 42 39 36 33 30 29 27 25 25 23 21 19 19 17 16 16 16 18 19 22 24 24 26 26 27 28 27 25 27 28 32 34 37 36 27 24 20 16 15 23 21 27 26 24 28 31
50 47 44 41 38 36 33 31 29 27 27 24 23 22 20 18 18 18 19 20 22 24 25 26 28 28 29 30 27 26 27 29 32 35 36 32 24 19 13 14 24 30 25 21 33 33 24
54 52 49 46 44 41 39 36 33 31 29 27 26 24 22 20 19 21 22 21 21 23 26 26 28 28 29 28 29 28 25 27 28 31 34 33 26 22 15 17 20 26 37 39 36 30 31
58 54 52 49 47 45 44 41 38 35 32 30 29 26 24 23 22 21 23 24 22 24 26 26 26 28 29 28 25 28 28 24 27 30 31 31 26 25 18 16 18 29 29 31 30 38 46
63 59 55 52 50 47 45 45 42 39 37 34 32 30 27 26 25 25 24 27 28 26 28 28 26 28 29 29 29 27 28 29 24 26 29 29 27 26 16 19 22 19 22 30 33 35 36
66 62 59 55 51 50 47 46 45 43 39 36 35 33 30 29 29 28 27 28 31 31 29 32 28 27 28 28 27 28 29 30 29 28 27 28 26 29 19 21 23 20 21 24 30 32 39
68 64 61 57 54 51 49 47 46 45 42 39 38 35 33 32 32 31 32 29 32 34 31 32 30 28 29 28 26 29 29 29 29 30 29 28 28 28 25 25 21 19 24 27 29 33 36
70 67 63 60 56 53 51 49 48 46 44 42 40 39 34 34 35 34 34 33 34 36 36 32 32 31 30 30 27 26 29 27 27 28 28 28 28 28 27 25 21 11 20 26 26 26 32
70 68 65 62 59 56 54 51 50 49 46 44 43 41 38 37 35 37 36 35 37 38 38 37 34 34 33 32 32 30 31 32 29 30 32 32 31 30 29 31 31 21 22 24 27 29 29
69 68 66 64 61 59 57 54 52 50 49 46 43 44 41 39 38 36 38 38 40 39 39 38 34 36 33 33 32 31 31 33 32 31 30 30 32 32 31 31 30 29 24 25 30 31 32
76 70 68 66 63 61 59 56 54 52 51 48 46 45 43 40 40 39 37 38 41 41 39 38 35 35 35 34 33 32 32 34 35 31 33 31 33 31 34 33 31 29 32 28 33 35 39
73 75 66 65 64 62 60 58 55 54 52 49 47 46 46 42 39 39 40 45 44 41 39 37 36 37 35 35 33 32 33 34 36 32 30 33 34 37 36 31 30 29 35 37 43 44 45
Wind_Direction
49 63 83 113 147 162 178 187 193 200 210 220 227 233 238 243 247 250 255 259 259 262 264 262 261 260 259 257 256 256 252 251 254 256 253 253 250 250 248 240 240 240 239 241 234 231 230
49 67 83 104 127 148 165 181 197 208 217 225 233 240 245 250 254 258 260 261 265 267 269 270 269 270 268 265 261 259 259 258 254 251 252 254 253 252 252 249 243 244 243 239 236 232 228
83 87 101 119 133 140 152 162 173 186 197 208 217 226 232 237 242 251 263 269 272 273 274 273 271 270 270 272 268 264 262 261 262 262 257 253 252 253 251 251 246 242 246 244 239 234 234
106 119 123 129 132 135 135 135 146 165 205 244 275 283 281 278 277 278 274 281 284 288 285 279 275 273 274 274 275 272 273 271 267 265 264 262 257 253 252 249 246 245 244 248 243 244 236
134 137 141 145 149 147 149 151 167 207 255 276 296 299 295 290 290 290 286 284 289 293 288 284 282 278 276 280 278 278 282 283 279 276 272 267 262 259 253 251 248 244 249 250 248 247 243
160 161 160 166 167 162 163 174 205 239 262 278 287 288 290 292 292 288 285 285 288 294 290 290 290 293 291 289 287 287 290 292 288 281 278 272 265 259 257 254 247 249 247 245 246 241 242
179 178 179 177 182 187 194 210 241 264 279 287 290 289 286 289 292 292 290 287 287 292 298 299 297 296 295 295 293 294 295 297 297 293 285 281 272 264 258 253 252 247 245 242 239 238 237
214 202 196 198 198 205 219 243 272 284 288 289 291 292 294 297 299 302 304 304 301 295 290 291 293 295 294 293 298 300 301 303 302 299 293 288 282 270 258 250 246 246 245 240 239 237 238
229 226 222 221 223 224 233 248 263 276 286 292 296 300 306 309 308 307 304 301 298 296 298 303 302 301 296 296 296 305 307 311 313 317 309 295 281 264 253 245 241 239 241 241 239 237 235
238 229 227 222 218 220 227 246 266 277 286 297 306 310 316 318 317 316 312 307 302 298 296 294 298 302 305 307 306 311 316 316 320 322 317 304 283 267 249 243 242 238 235 238 236 239 235
225 221 214 211 210 215 229 242 259 273 283 293 300 312 319 325 328 326 326 323 318 313 308 304 306 311 310 310 312 317 321 320 326 328 324 312 297 280 253 242 235 237 231 234 235 238 236
227 221 223 225 225 229 237 249 261 271 280 287 295 301 308 316 324 333 335 337 336 332 327 320 312 311 319 320 318 322 329 329 330 335 329 313 324 312 273 247 241 239 235 233 230 237 238
234 234 232 233 237 240 249 256 261 265 271 281 290 299 310 315 326 328 331 336 349 341 337 331 327 321 321 321 319 325 330 335 332 337 335 320 319 314 278 246 237 231 240 240 231 217 233
234 237 238 239 241 246 249 257 261 263 264 268 279 288 296 306 315 321 330 336 339 343 346 339 334 325 324 322 326 329 331 341 338 336 334 332 338 302 276 238 231 215 223 235 231 232 231
237 235 236 238 241 243 248 250 258 262 264 267 271 281 290 301 310 317 324 332 333 340 344 343 338 332 328 328 329 332 332 343 342 338 334 328 348 305 265 236 250 234 233 230 234 232 227
236 235 235 236 239 246 249 252 255 260 265 267 269 274 285 298 304 310 315 322 328 334 339 340 340 335 332 331 330 333 333 343 346 340 326 322 321 317 267 245 239 280 225 232 227 236 233
235 235 235 236 240 245 248 249 251 254 258 265 270 274 278 289 306 313 315 316 322 327 332 339 341 339 337 337 332 334 336 339 345 343 340 326 302 316 312 258 246 243 245 253 249 241 236
235 235 236 237 240 245 247 250 250 249 252 259 264 268 274 283 295 308 318 318 316 319 327 332 337 338 338 339 340 333 336 336 343 343 346 339 317 307 296 275 234 244 249 247 256 255 263
236 236 237 239 240 243 247 250 251 251 250 253 259 265 270 279 289 297 305 316 321 315 320 326 330 336 339 336 340 335 333 336 339 342 344 346 336 321 255 271 233 247 226 249 246 252 263
235 236 238 240 241 243 245 249 248 249 250 251 255 261 269 277 284 293 301 310 314 320 315 320 322 329 334 336 336 337 337 334 334 338 338 347 342 317 315 254 241 242 252 264 270 258 259
234 237 239 242 243 243 245 246 248 247 248 249 251 258 265 274 280 284 293 303 311 317 316 313 316 320 327 334 337 332 334 335 329 334 336 343 343 327 315 297 281 261 257 251 267 274 270
234 235 238 241 242 243 242 245 246 247 246 247 250 254 259 268 276 284 289 298 304 308 315 314 311 312 320 329 333 333 333 332 331 326 330 335 340 338 334 294 287 285 276 268 261 263 267
233 234 236 239 240 241 242 243 246 247 246 246 250 253 258 265 272 280 286 291 299 304 306 314 310 307 312 320 328 330 331 332 333 328 324 327 332 334 344 303 297 294 283 269 264 265 266
231 233 235 236 238 239 240 240 242 244 245 245 247 251 256 264 271 277 282 286 292 298 300 305 313 303 307 314 322 325 329 330 329 326 322 320 323 330 332 321 314 298 284 276 267 266 262
229 231 233 234 236 237 238 239 241 242 243 245 247 251 255 262 268 272 278 284 287 294 298 299 308 302 300 306 314 320 323 324 322 321 318 317 316 322 321 316 313 282 274 282 287 287 277
227 228 229 232 233 235 236 237 238 241 242 245 250 254 256 260 265 271 278 282 286 290 293 294 298 300 298 304 310 315 319 323 326 324 323 319 318 319 317 316 318 300 289 286 287 282 279
224 226 228 230 231 232 234 235 237 240 243 246 248 253 256 259 263 270 274 282 286 288 287 288 293 296 290 296 302 307 315 318 319 322 321 314 313 312 310 305 308 300 289 275 277 277 276
220 221 225 227 229 231 232 234 236 239 242 245 248 251 255 259 264 268 274 280 284 285 283 284 289 294 289 293 298 304 309 315 316 322 319 321 311 303 301 311 310 292 284 271 265 266 274
228 224 223 227 229 230 232 234 236 239 242 244 248 252 255 258 263 267 275 281 283 281 279 280 286 290 284 286 291 299 305 309 311 317 316 316 308 303 303 313 306 297 287 281 275 272 276
Height
5748 5747 5748 5749 5751 5753 5756 5758 5761 5763 5766 5769 5771 5774 5776 5778 5780 5782 5783 5785 5787 5789 5791 5793 5795 5797 5798 5801 5807 5808 5809 5811 5814 5815 5818 5820 5823 5826 5831 5834 5834 5838 5843 5845 5856 5859 5864
5748 5748 5749 5750 5751 5753 5755 5757 5760 5762 5765 5767 5769 5771 5773 5775 5776 5777 5780 5781 5783 5784 5785 5786 5787 5788 5791 5795 5796 5797 5800 5800 5802 5805 5807 5809 5810 5814 5819 5823 5827 5833 5832 5835 5842 5849 5855
5748 5749 5749 5750 5751 5753 5755 5757 5759 5761 5763 5765 5767 5769 5771 5772 5773 5775 5776 5777 5778 5779 5779 5780 5781 5782 5784 5786 5787 5788 5789 5792 5792 5793 5796 5798 5798 5801 5806 5812 5815 5819 5822 5826 5831 5842 5848
5748 5749 5750 5750 5751 5753 5754 5756 5758 5760 5761 5763 5764 5766 5767 5768 5769 5770 5771 5772 5773 5773 5773 5773 5774 5775 5776 5777 5777 5779 5781 5782 5783 5784 5784 5784 5786 5788 5792 5795 5800 5803 5808 5814 5829 5831 5838
5748 5749 5749 5750 5751 5753 5754 5755 5757 5758 5759 5760 5762 5763 5764 5765 5765 5766 5767 5768 5768 5768 5767 5768 5769 5770 5770 5771 5771 5772 5773 5772 5771 5771 5771 5772 5772 5774 5777 5780 5782 5791 5795 5803 5816 5819 5823
5747 5748 5748 5749 5750 5751 5753 5754 5756 5757 5758 5759 5760 5760 5761 5761 5762 5762 5763 5763 5763 5763 5763 5764 5764 5766 5765 5765 5764 5764 5763 5762 5761 5760 5759 5755 5753 5757 5763 5763 5770 5779 5779 5787 5795 5809 5806
5746 5746 5747 5748 5749 5750 5751 5752 5753 5754 5755 5756 5756 5757 5757 5758 5758 5758 5758 5758 5759 5758 5757 5757 5757 5756 5756 5756 5755 5755 5752 5750 5747 5744 5744 5740 5737 5744 5748 5746 5751 5756 5757 5765 5779 5785 5786
5745 5744 5745 5746 5747 5748 5749 5749 5750 5751 5752 5753 5754 5754 5754 5754 5754 5753 5752 5752 5752 5753 5752 5751 5750 5748 5747 5745 5745 5743 5742 5740 5735 5731 5727 5723 5721 5722 5721 5724 5727 5735 5737 5748 5759 5767 5769
5742 5742 5743 5744 5745 5746 5746 5747 5748 5749 5750 5750 5751 5751 5750 5750 5750 5750 5749 5748 5747 5747 5747 5745 5743 5740 5740 5738 5735 5732 5729 5725 5720 5714 5708 5701 5697 5693 5695 5699 5702 5712 5716 5729 5736 5745 5750
5740 5739 5740 5741 5742 5743 5744 5745 5746 5746 5747 5747 5748 5748 5747 5747 5748 5746 5745 5743 5742 5741 5741 5740 5738 5735 5731 5729 5727 5724 5720 5717 5710 5700 5690 5682 5673 5670 5672 5676 5681 5686 5702 5704 5715 5719 5729
5736 5737 5737 5738 5739 5740 5741 5742 5742 5743 5744 5744 5745 5744 5744 5743 5743 5742 5741 5738 5736 5735 5734 5733 5731 5728 5725 5723 5720 5717 5713 5707 5701 5691 5680 5671 5658 5654 5653 5658 5663 5662 5678 5686 5695 5700 5711
5733 5733 5734 5735 5735 5737 5738 5738 5739 5739 5740 5741 5741 5741 5741 5740 5739 5737 5735 5733 5732 5731 5728 5726 5723 5721 5718 5715 5712 5708 5704 5697 5691 5683 5670 5659 5657 5646 5645 5650 5655 5660 5665 5670 5676 5686 5687
5727 5729 5729 5731 5732 5733 5734 5734 5735 5735 5735 5736 5736 5736 5736 5735 5734 5733 5731 5729 5727 5724 5723 5721 5717 5714 5712 5710 5706 5702 5697 5691 5682 5676 5668 5661 5653 5643 5638 5641 5650 5656 5660 5662 5667 5671 5673
5720 5723 5724 5725 5726 5728 5728 5730 5730 5730 5731 5731 5732 5731 5731 5731 5730 5728 5726 5725 5723 5721 5718 5715 5712 5708 5706 5704 5700 5696 5690 5684 5676 5666 5657 5651 5652 5644 5640 5640 5640 5650 5655 5655 5658 5664 5670
5713 5715 5717 5719 5720 5722 5723 5724 5725 5725 5725 5726 5726 5726 5726 5725 5724 5723 5723 5721 5718 5717 5714 5711 5707 5704 5701 5698 5694 5690 5682 5679 5671 5662 5653 5647 5649 5645 5640 5640 5644 5651 5648 5653 5650 5655 5662
5705 5708 5710 5712 5713 5715 5717 5718 5719 5720 5720 5721 5721 5721 5720 5720 5720 5718 5718 5716 5714 5712 5709 5706 5703 5700 5696 5693 5689 5684 5677 5674 5667 5659 5650 5647 5642 5643 5641 5640 5643 5641 5640 5642 5648 5651 5656
5695 5699 5701 5704 5705 5707 5709 5711 5713 5714 5714 5715 5716 5716 5716 5715 5715 5714 5712 5711 5709 5707 5705 5702 5698 5694 5690 5688 5683 5679 5674 5668 5662 5656 5649 5643 5640 5643 5641 5638 5637 5640 5637 5638 5638 5640 5645
5684 5688 5691 5694 5697 5699 5701 5703 5705 5706 5708 5709 5710 5710 5710 5710 5710 5708 5707 5705 5704 5701 5700 5698 5694 5689 5685 5683 5680 5674 5670 5663 5659 5652 5646 5641 5637 5636 5638 5634 5635 5637 5636 5638 5639 5642 5643
5672 5676 5680 5684 5687 5689 5691 5694 5697 5698 5700 5702 5703 5703 5704 5704 5703 5702 5701 5701 5698 5696 5694 5692 5689 5685 5681 5677 5676 5670 5665 5660 5654 5648 5642 5639 5635 5632 5636 5634 5633 5630 5634 5634 5634 5636 5640
5657 5662 5668 5672 5676 5679 5681 5684 5687 5689 5691 5694 5695 5696 5696 5696 5696 5695 5694 5694 5693 5691 5688 5686 5684 5681 5678 5674 5669 5666 5661 5657 5651 5646 5639 5634 5631 5627 5630 5630 5628 5630 5631 5627 5626 5629 5628
5642 5649 5654 5659 5664 5668 5671 5673 5676 5679 5682 5685 5686 5688 5688 5688 5689 5689 5688 5687 5686 5685 5684 5681 5679 5676 5673 5670 5666 5661 5656 5653 5647 5642 5637 5632 5628 5623 5624 5623 5622 5623 5626 5627 5627 5626 5625
5626 5633 5640 5645 5650 5655 5659 5661 5665 5668 5671 5675 5677 5678 5680 5680 5681 5680 5680 5680 5678 5678 5678 5675 5673 5670 5666 5663 5659 5656 5652 5646 5644 5639 5633 5629 5625 5620 5620 5617 5615 5616 5618 5620 5623 5621 5619
5610 5618 5625 5631 5636 5642 5646 5649 5653 5657 5660 5664 5666 5668 5670 5672 5672 5674 5673 5672 5670 5670 5670 5667 5666 5664 5660 5658 5654 5650 5646 5641 5637 5633 5629 5625 5620 5615 5615 5611 5611 5613 5610 5611 5609 5609 5606
5593 5601 5609 5616 5622 5628 5633 5636 5640 5645 5649 5652 5656 5658 5660 5662 5663 5663 5664 5663 5663 5662 5662 5660 5658 5657 5655 5651 5649 5644 5640 5636 5632 5626 5624 5620 5615 5611 5608 5605 5606 5606 5602 5599 5600 5599 5597
5575 5585 5593 5601 5608 5614 5619 5624 5628 5632 5637 5640 5644 5647 5651 5651 5652 5654 5655 5654 5655 5653 5651 5651 5650 5648 5647 5644 5643 5639 5635 5633 5629 5623 5619 5614 5609 5607 5602 5599 5601 5599 5593 5592 5592 5591 5586
5558 5567 5577 5585 5592 5599 5605 5611 5615 5620 5624 5628 5632 5634 5640 5642 5644 5643 5644 5644 5645 5644 5642 5641 5641 5639 5637 5635 5632 5630 5627 5623 5621 5616 5611 5607 5604 5600 5596 5591 5590 5589 5587 5585 5582 5579 5578
5541 5551 5560 5569 5577 5584 5591 5597 5603 5607 5612 5616 5620 5623 5627 5630 5632 5634 5633 5634 5634 5633 5633 5632 5632 5629 5629 5627 5625 5623 5621 5617 5614 5611 5606 5601 5594 5592 5588 5584 5583 5579 5579 5577 5574 5575 5569
5523 5534 5544 5553 5562 5569 5577 5583 5589 5594 5599 5604 5608 5611 5615 5618 5620 5623 5625 5625 5623 5623 5623 5623 5623 5620 5619 5618 5617 5615 5612 5608 5605 5604 5598 5595 5589 5585 5580 5580 5577 5573 5569 5568 5563 5562 5558
5509 5518 5528 5538 5547 5554 5562 5569 5576 5581 5586 5591 5596 5599 5602 5607 5610 5611 5613 5613 5613 5612 5613 5614 5612 5610 5610 5609 5609 5607 5604 5600 5597 5597 5593 5588 5582 5577 5575 5575 5570 5566 5559 5558 5554 5554 5551